Huntington, WV

9:57 PM EST on December 08, 2019 (GMT -0500)
Tri-State / Ferguson

Weather History for KHTS - October, 2019

Change the Weather History Date:

Wednesday, October 9, 2019

  Actual Average Record
Temperature  
Mean Temperature 65 °F 59 °F  
Max Temperature 76 °F 70 °F 92 °F (1939)
Min Temperature 54 °F 47 °F 31 °F (1978)
Degree Days  
Heating Degree Days 0 7  
Month to date heating degree days 12 55  
Since 1 July heating degree days 12 113  
Cooling Degree Days 0 1  
Month to date cooling degree days 59 11  
Year to date cooling degree days 1504 1122  
Growing Degree Days 14 (Base 50)    
Moisture  
Dew Point 56 °F    
Average Humidity 77    
Maximum Humidity 100    
Minimum Humidity 54    
Precipitation  
Precipitation 0.00 in 0.09 in 1.65 in (1979)
Month to date precipitation 2.78 0.79  
Year to date precipitation 37.25 33.82  
Snow  
Snow 0.00 in 0.00 in 0.00 in (2016)
Month to date snowfall 0.0 0.0  
Since 1 September snowfall 0.0 0.0  
Snow Depth 0.00 in    
Sea Level Pressure  
Sea Level Pressure 30.14 in    
Wind  
Wind Speed 2 mph (ESE)    
Max Wind Speed 7 mph    
Max Gust Speed 9 mph    
Visibility 8 miles    
Events Fog    
T = Trace of Precipitation, MM = Missing Value Source: NWS Daily Summary

Daily Weather History Graph

Daily Weather History Graph

Search for Another Location

Airport or City:

Astronomy

Oct. 09, 2019 Rise Set
Actual Time 7:33 AM EDT 7:01 PM EDT
Civil Twilight 7:06 AM EDT 7:27 PM EDT
Nautical Twilight 6:36 AM EDT 7:58 PM EDT
Astronomical Twilight 6:05 AM EDT 8:28 PM EDT
Moon 5:28 PM EDT 3:23 AM EDT
Length of Visible Light 12h 21m
Length of Day
11h 28m
Waxing Gibbous, 85% of the Moon is Illuminated
Oct 9
Waxing Gibbous
Oct 13
Full
Oct 21
Last Quarter
Oct 27
New
Nov 4
First Quarter

Hourly Weather History & Observations

Time (EDT) Temp. Dew Point Humidity Pressure Visibility Wind Dir Wind Speed Gust Speed Precip Events Conditions
12:51 AM 60.1 °F 55.0 °F 83% 30.14 in 10.0 mi East 5.8 mph - N/A   Overcast
1:51 AM 60.1 °F 55.9 °F 86% 30.13 in 10.0 mi ENE 5.8 mph - N/A   Overcast
2:51 AM 57.9 °F 55.0 °F 90% 30.13 in 10.0 mi ENE 4.6 mph - N/A   Scattered Clouds
3:51 AM 57.0 °F 55.0 °F 93% 30.12 in 10.0 mi East 4.6 mph - N/A   Clear
4:18 AM 57.0 °F 55.0 °F 93% 30.13 in 10.0 mi East 3.5 mph - N/A   Scattered Clouds
4:51 AM 55.9 °F 54.0 °F 93% 30.12 in 10.0 mi East 3.5 mph - N/A   Scattered Clouds
5:02 AM 55.9 °F 55.0 °F 97% 30.13 in 10.0 mi Calm Calm - N/A   Mostly Cloudy
5:21 AM 55.9 °F 55.0 °F 97% 30.14 in 10.0 mi Calm Calm - N/A   Mostly Cloudy
5:36 AM 55.9 °F 55.0 °F 97% 30.14 in 10.0 mi SE 3.5 mph - N/A   Scattered Clouds
5:51 AM 55.9 °F 54.0 °F 93% 30.13 in 9.0 mi Calm Calm - N/A   Partly Cloudy
6:14 AM 55.9 °F 54.0 °F 93% 30.14 in 7.0 mi SE 3.5 mph - N/A   Mostly Cloudy
6:23 AM 55.0 °F 54.0 °F 96% 30.14 in 1.8 mi Calm Calm - N/A   Mostly Cloudy
6:33 AM 55.0 °F 54.0 °F 96% 30.15 in 0.5 mi Calm Calm - N/A Fog Fog
6:51 AM 54.0 °F 54.0 °F 100% 30.15 in 0.2 mi Calm Calm - N/A Fog Fog
7:04 AM 55.0 °F 54.0 °F 96% 30.16 in 0.8 mi Variable 4.6 mph - N/A   Mist
7:17 AM 55.0 °F 54.0 °F 96% 30.16 in 0.2 mi Calm Calm - N/A Fog Fog
7:40 AM 54.0 °F 54.0 °F 100% 30.16 in 0.2 mi Calm Calm - N/A Fog Fog
7:51 AM 54.0 °F 53.1 °F 97% 30.16 in 0.2 mi Calm Calm - N/A Fog Fog
8:04 AM 54.0 °F 54.0 °F 100% 30.17 in 0.5 mi Calm Calm - N/A Fog Fog
8:25 AM 55.9 °F 54.0 °F 93% 30.17 in 3.0 mi Calm Calm - N/A   Mostly Cloudy
8:37 AM 55.9 °F 55.0 °F 97% 30.18 in 0.2 mi Calm Calm - N/A Fog Fog
8:51 AM 57.0 °F 55.9 °F 96% 30.17 in 0.5 mi Calm Calm - N/A Fog Fog
9:51 AM 57.9 °F 55.9 °F 93% 30.18 in 0.5 mi Variable 3.5 mph - N/A Fog Fog
9:58 AM 57.9 °F 55.9 °F 93% 30.19 in 10.0 mi South 3.5 mph - N/A   Overcast
10:25 AM 57.9 °F 55.0 °F 90% 30.20 in 10.0 mi SW 3.5 mph - N/A   Overcast
10:41 AM 57.9 °F 55.0 °F 90% 30.20 in 10.0 mi WSW 4.6 mph - N/A   Overcast
10:51 AM 60.1 °F 55.9 °F 86% 30.19 in 10.0 mi Calm Calm - N/A   Overcast
11:03 AM 61.0 °F 55.9 °F 83% 30.20 in 10.0 mi SSW 3.5 mph - N/A   Mostly Cloudy
11:10 AM 61.0 °F 55.0 °F 81% 30.20 in 10.0 mi SSW 4.6 mph - N/A   Overcast
11:40 AM 63.0 °F 55.9 °F 78% 30.19 in 10.0 mi Variable 4.6 mph - N/A   Mostly Cloudy
11:51 AM 64.0 °F 55.9 °F 75% 30.18 in 10.0 mi South 5.8 mph - N/A   Clear
12:51 PM 70.0 °F 57.0 °F 63% 30.16 in 10.0 mi Calm Calm - N/A   Clear
1:51 PM 73.0 °F 57.9 °F 59% 30.13 in 10.0 mi East 3.5 mph - N/A   Clear
2:51 PM 73.0 °F 57.9 °F 59% 30.11 in 10.0 mi Calm Calm - N/A   Mostly Cloudy
3:51 PM 75.0 °F 57.9 °F 55% 30.10 in 10.0 mi Variable 3.5 mph - N/A   Overcast
4:51 PM 73.9 °F 57.9 °F 57% 30.09 in 10.0 mi Calm Calm - N/A   Mostly Cloudy
5:51 PM 72.0 °F 57.0 °F 59% 30.09 in 10.0 mi NNE 3.5 mph - N/A   Partly Cloudy
6:51 PM 70.0 °F 57.9 °F 65% 30.10 in 10.0 mi ENE 4.6 mph - N/A   Clear
7:51 PM 68.0 °F 57.9 °F 70% 30.11 in 10.0 mi NE 4.6 mph - N/A   Clear
8:51 PM 64.0 °F 57.9 °F 80% 30.12 in 10.0 mi East 3.5 mph - N/A   Clear
9:51 PM 63.0 °F 57.9 °F 84% 30.13 in 10.0 mi Calm Calm - N/A   Clear
10:51 PM 62.1 °F 57.9 °F 86% 30.14 in 10.0 mi Calm Calm - N/A   Clear
11:51 PM 60.1 °F 57.0 °F 90% 30.14 in 10.0 mi Calm Calm - N/A   Clear